Weather in Warsaw

United States     38°14′33″N   93°22′57″W
temp.,
°C
wind,
m/s
gust,
m/s
humid.,
%
clouds,
%
prec.,
mm/h
press.,
hPa
HPBL,
m
6 may, thu
thu601:00+10sw2376100 0.0 102154
04:00+9wsw398246 0.0 1021181
07:00+9w41196100 0.6 1022360
10:00+13nnw697869 0.3 1023863
13:00+11nnw5870100 0.4 10251112
16:00+16nnw57495 0.0 10231732
19:00+14nnw36605 0.0 1022541
22:00+8wnw22810 0.0 102428
7 may, fri
fri701:00+7wsw22850 0.0 102312
04:00+6sw23850 0.0 102257
07:00+7wsw397883 0.0 1023200
10:00+16wsw475222 0.0 1022611
13:00+20wsw56446 0.0 10191252
16:00+12sw4788100 1.2 1019346
19:00+11s1596100 1.6 1017198
22:00+11sse2692100 0.0 1017158
8 may, sat
sat801:00+11ese2497100 1.7 1016108
04:00+12ese4898100 0.9 1014266
07:00+12ese4998100 1.5 1014336
10:00+15se489272 0.1 1012483
13:00+20sse3672100 0.1 10101129
16:00+23ssw3668100 0.1 10071225
19:00+22s4107397 0.2 1006668
22:00+19sse41293100 0.5 1006531
9 may, sun
sun901:00+18sse51494100 1.5 1003740
04:00+19s71793100 2.6 10001276
07:00+21sw71884100 2.6 10001561
10:00+21sw81784100 0.4 9991460
13:00+19w8127699 0.6 1002919
16:00+19w61068100 0.0 10041198
19:00+15nw5974100 0.1 10081064
22:00+12nnw61070100 0.0 10121115
10 may, mon
mon1001:00+9n5118573 0.1 1014827
04:00+7n5978100 0.0 1016900
07:00+6ne5118298 0.0 1018718
10:00+8ne5875100 0.0 1020967
13:00+11nne4664100 0.1 10221275
16:00+11ne676096 0.0 10211314
19:00+10ne5767100 0.0 10231050
22:00+7ne398612 0.0 1025328